When you browse on this site, cookies collect data to enhance your experience and personalize the content and advertising you see.
Visit our Privacy Policy to learn more. By continuing to use the site, you agree to this use of cookies and data.

Hourly Weather Port Said

Today, 5 July, Sunday

Time Temperature Precipitation Wind Pressure Humidity
00:00 +24°C° 0 mm 3 mps 755 mmHg 87%
01:00 +24°C° 0 mm 3 mps 755 mmHg 89%
02:00 +22°C° 0 mm 3 mps 754 mmHg 90%
03:00 +22°C° 0 mm 3 mps 754 mmHg 91%
04:00 +22°C° 0 mm 3 mps 754 mmHg 93%
05:00 +22°C° 0 mm 3 mps 754 mmHg 94%
06:00 +25°C° 0 mm 3 mps 754 mmHg 81%
07:00 +27°C° 0 mm 4 mps 754 mmHg 69%
08:00 +30°C° 0 mm 4 mps 754 mmHg 57%
09:00 +33°C° 0 mm 4 mps 754 mmHg 46%
10:00 +36°C° 0 mm 5 mps 753 mmHg 36%
11:00 +40°C° 0 mm 5 mps 753 mmHg 25%
12:00 +39°C° 0 mm 6 mps 753 mmHg 26%
13:00 +39°C° 0 mm 8 mps 753 mmHg 28%
14:00 +39°C° 0 mm 9 mps 752 mmHg 29%
15:00 +38°C° 0 mm 9 mps 752 mmHg 33%
16:00 +37°C° 0 mm 9 mps 752 mmHg 38%
17:00 +34°C° 0 mm 9 mps 752 mmHg 42%
18:00 +32°C° 0 mm 8 mps 752 mmHg 51%
19:00 +30°C° 0 mm 7 mps 752 mmHg 60%
20:00 +28°C° 0 mm 6 mps 752 mmHg 69%
21:00 +27°C° 0 mm 6 mps 752 mmHg 73%
22:00 +26°C° 0 mm 6 mps 752 mmHg 78%
23:00 +25°C° 0 mm 5 mps 753 mmHg 82%

Tomorrow, 6 July, Monday

Time Temperature Precipitation Wind Pressure Humidity
00:00 +25°C° 0 mm 5 mps 752 mmHg 84%
01:00 +23°C° 0 mm 4 mps 752 mmHg 87%
02:00 +23°C° 0 mm 4 mps 752 mmHg 89%
03:00 +23°C° 0 mm 4 mps 752 mmHg 90%
04:00 +23°C° 0 mm 4 mps 751 mmHg 91%
05:00 +22°C° 0 mm 4 mps 751 mmHg 92%
06:00 +26°C° 0 mm 4 mps 751 mmHg 80%
07:00 +28°C° 0 mm 4 mps 752 mmHg 68%
08:00 +30°C° 0 mm 3 mps 752 mmHg 55%
09:00 +33°C° 0 mm 4 mps 752 mmHg 46%
10:00 +36°C° 0 mm 5 mps 752 mmHg 37%
11:00 +39°C° 0 mm 6 mps 751 mmHg 28%
12:00 +39°C° 0 mm 7 mps 751 mmHg 29%
13:00 +39°C° 0 mm 8 mps 751 mmHg 31%
14:00 +39°C° 0 mm 10 mps 751 mmHg 32%
15:00 +38°C° 0 mm 10 mps 751 mmHg 35%
16:00 +36°C° 0 mm 10 mps 750 mmHg 38%
17:00 +34°C° 0 mm 10 mps 750 mmHg 41%
18:00 +32°C° 0 mm 8 mps 751 mmHg 51%
19:00 +30°C° 0 mm 7 mps 751 mmHg 60%
20:00 +28°C° 0 mm 6 mps 752 mmHg 69%
21:00 +27°C° 0 mm 5 mps 752 mmHg 74%
22:00 +26°C° 0 mm 4 mps 752 mmHg 78%
23:00 +25°C° 0 mm 2 mps 752 mmHg 82%

Day after tomorrow, 7 July, Tuesday

Time Temperature Precipitation Wind Pressure Humidity
00:00 +25°C° 0 mm 2 mps 752 mmHg 84%
01:00 +24°C° 0 mm 1 mps 752 mmHg 86%
02:00 +23°C° 0 mm 1 mps 752 mmHg 88%
03:00 +23°C° 0 mm 1 mps 752 mmHg 88%
04:00 +23°C° 0 mm 1 mps 752 mmHg 88%
05:00 +23°C° 0 mm 1 mps 752 mmHg 88%
06:00 +25°C° 0 mm 1 mps 752 mmHg 76%
07:00 +28°C° 0 mm 1 mps 753 mmHg 63%
08:00 +30°C° 0 mm 1 mps 753 mmHg 50%
09:00 +34°C° 0 mm 2 mps 753 mmHg 41%
10:00 +36°C° 0 mm 2 mps 753 mmHg 31%
11:00 +38°C° 0 mm 3 mps 753 mmHg 22%
12:00 +38°C° 0 mm 4 mps 753 mmHg 23%
13:00 +39°C° 0 mm 5 mps 753 mmHg 23%
14:00 +39°C° 0 mm 6 mps 753 mmHg 24%
15:00 +38°C° 0 mm 6 mps 752 mmHg 32%
16:00 +35°C° 0 mm 7 mps 752 mmHg 40%
17:00 +33°C° 0 mm 7 mps 752 mmHg 48%
18:00 +32°C° 0 mm 6 mps 753 mmHg 56%
19:00 +29°C° 0 mm 5 mps 753 mmHg 64%
20:00 +28°C° 0 mm 4 mps 753 mmHg 73%
21:00 +28°C° 0 mm 4 mps 754 mmHg 74%
22:00 +27°C° 0 mm 3 mps 754 mmHg 75%
23:00 +27°C° 0 mm 3 mps 754 mmHg 77%

8 July, Wednesday

Time Temperature Precipitation Wind Pressure Humidity
00:00 +27°C° 0 mm 3 mps 754 mmHg 77%
01:00 +26°C° 0 mm 3 mps 754 mmHg 77%
02:00 +26°C° 0 mm 2 mps 754 mmHg 76%
03:00 +26°C° 0 mm 2 mps 754 mmHg 78%
04:00 +26°C° 0 mm 2 mps 754 mmHg 79%
05:00 +25°C° 0 mm 2 mps 754 mmHg 80%
06:00 +28°C° 0 mm 2 mps 754 mmHg 69%
07:00 +30°C° 0 mm 2 mps 755 mmHg 58%
08:00 +32°C° 0 mm 2 mps 755 mmHg 47%
09:00 +34°C° 0 mm 3 mps 755 mmHg 42%
10:00 +36°C° 0 mm 3 mps 755 mmHg 37%
11:00 +37°C° 0 mm 4 mps 755 mmHg 31%
12:00 +37°C° 0 mm 5 mps 755 mmHg 34%
13:00 +36°C° 0 mm 6 mps 755 mmHg 36%
14:00 +36°C° 0 mm 7 mps 754 mmHg 38%
15:00 +35°C° 0 mm 7 mps 754 mmHg 44%
16:00 +34°C° 0 mm 7 mps 754 mmHg 50%
17:00 +32°C° 0 mm 7 mps 754 mmHg 56%
18:00 +30°C° 0 mm 7 mps 755 mmHg 62%
19:00 +29°C° 0 mm 7 mps 755 mmHg 68%
20:00 +28°C° 0 mm 6 mps 755 mmHg 74%
21:00 +27°C° 0 mm 5 mps 756 mmHg 75%
22:00 +27°C° 0 mm 4 mps 756 mmHg 77%
23:00 +27°C° 0 mm 3 mps 756 mmHg 78%

9 July, Thursday

Time Temperature Precipitation Wind Pressure Humidity
00:00 +26°C° 0 mm 2 mps 756 mmHg 80%
01:00 +26°C° 0 mm 2 mps 755 mmHg 82%
02:00 +25°C° 0 mm 2 mps 755 mmHg 84%
03:00 +25°C° 0 mm 2 mps 755 mmHg 86%
04:00 +24°C° 0 mm 2 mps 755 mmHg 87%
05:00 +24°C° 0 mm 2 mps 755 mmHg 89%
06:00 +26°C° 0 mm 2 mps 755 mmHg 80%
07:00 +27°C° 0 mm 2 mps 755 mmHg 70%
08:00 +29°C° 0 mm 2 mps 755 mmHg 60%
09:00 +31°C° 0 mm 3 mps 755 mmHg 53%
10:00 +33°C° 0 mm 3 mps 755 mmHg 45%
11:00 +35°C° 0 mm 4 mps 755 mmHg 37%
12:00 +35°C° 0 mm 5 mps 755 mmHg 39%
13:00 +35°C° 0 mm 6 mps 755 mmHg 41%
14:00 +35°C° 0 mm 7 mps 754 mmHg 43%
15:00 +34°C° 0 mm 7 mps 754 mmHg 48%
16:00 +33°C° 0 mm 7 mps 754 mmHg 52%
17:00 +32°C° 0 mm 7 mps 754 mmHg 57%
18:00 +30°C° 0 mm 6 mps 754 mmHg 65%
19:00 +28°C° 0 mm 6 mps 754 mmHg 72%
20:00 +27°C° 0 mm 5 mps 755 mmHg 80%
21:00 +27°C° 0 mm 4 mps 755 mmHg 81%
22:00 +26°C° 0 mm 4 mps 755 mmHg 82%
23:00 +26°C° 0 mm 4 mps 755 mmHg 83%

10 July, Friday

Time Temperature Precipitation Wind Pressure Humidity
00:00 +25°C° 0 mm 4 mps 755 mmHg 85%
01:00 +25°C° 0 mm 4 mps 754 mmHg 86%
02:00 +25°C° 0 mm 4 mps 754 mmHg 88%
03:00 +24°C° 0 mm 3 mps 754 mmHg 88%
04:00 +24°C° 0 mm 3 mps 754 mmHg 89%
05:00 +24°C° 0 mm 3 mps 754 mmHg 90%
06:00 +25°C° 0 mm 3 mps 754 mmHg 81%
07:00 +27°C° 0 mm 3 mps 754 mmHg 72%
08:00 +29°C° 0 mm 2 mps 754 mmHg 63%
09:00 +31°C° 0 mm 3 mps 754 mmHg 55%
10:00 +34°C° 0 mm 3 mps 754 mmHg 46%
11:00 +36°C° 0 mm 3 mps 754 mmHg 38%
12:00 +35°C° 0 mm 5 mps 754 mmHg 41%
13:00 +35°C° 0 mm 6 mps 753 mmHg 45%
14:00 +35°C° 0 mm 7 mps 753 mmHg 48%
15:00 +34°C° 0 mm 7 mps 753 mmHg 52%
16:00 +33°C° 0 mm 7 mps 753 mmHg 56%
17:00 +32°C° 0 mm 7 mps 753 mmHg 60%
18:00 +30°C° 0 mm 6 mps 753 mmHg 66%
19:00 +29°C° 0 mm 5 mps 753 mmHg 72%
20:00 +28°C° 0 mm 4 mps 754 mmHg 78%
21:00 +27°C° 0 mm 3 mps 754 mmHg 81%
22:00 +27°C° 0 mm 3 mps 754 mmHg 83%
23:00 +26°C° 0 mm 2 mps 754 mmHg 86%
Show more